Sisseton, SD

3:31 PM CDT on May 25, 2017 (GMT -0500)
Sisseton

Weather History for K8D3 - May, 2013

Change the Weather History Date:

Sunday, May 5, 2013

  Actual Average Record
Temperature  
Mean Temperature 43 °F 54 °F  
Max Temperature 47 °F 66 °F 93 °F (2000)
Min Temperature 38 °F 41 °F 26 °F (1944)
Degree Days  
Heating Degree Days 22 12  
Month to date heating degree days 131 63  
Since 1 July heating degree days 8891 8022  
Cooling Degree Days 0 0  
Month to date cooling degree days 0 0  
Year to date cooling degree days 0 1  
Moisture  
Dew Point 39 °F    
Average Humidity 88    
Maximum Humidity 100    
Minimum Humidity 76    
Precipitation  
Precipitation 0.07 in 0.07 in 1.62 in (2007)
Month to date precipitation 0.17 0.42  
Year to date precipitation 5.79 4.68  
Sea Level Pressure  
Sea Level Pressure 30.22 in    
Wind  
Wind Speed 6 mph (NNE)    
Max Wind Speed 13 mph    
Max Gust Speed 16 mph    
T = Trace of Precipitation, MM = Missing Value Source: NWS Daily Summary

Daily Weather History Graph

Daily Weather History Graph

Search for Another Location

Airport or City:

Trip Planner

Search our weather history database for the weather conditions in past years. The results will help you decide how hot, cold, wet, or windy it might be!

Date:

Astronomy

May. 05, 2013 Rise Set
Actual Time 6:09 AM CDT 8:40 PM CDT
Civil Twilight 5:36 AM CDT 9:14 PM CDT
Nautical Twilight 4:54 AM CDT 9:56 PM CDT
Astronomical Twilight 4:06 AM CDT 10:44 PM CDT
Moon 3:53 AM CDT (5/5) 4:30 PM CDT (5/5)
Length of Visible Light 15h 38m
Length of Day
14h 31m
Waning Crescent, 18% of the Moon is Illuminated
May 5
Waning Crescent
May 9
New
May 17
First Quarter
May 24
Full
May 31
Last Quarter

Hourly Weather History & Observations

Time (CDT) Temp. Windchill Dew Point Humidity Pressure Visibility Wind Dir Wind Speed Gust Speed Precip Events Conditions
12:56 AM 37.9 °F 33.5 °F 37.9 °F 100% 30.26 in - NNE 5.8 mph - N/A   Unknown
1:56 AM 37.9 °F 32.7 °F 37.9 °F 100% 30.25 in - NNE 6.9 mph - N/A   Unknown
2:56 AM 37.9 °F 32.7 °F 37.0 °F 97% 30.24 in - NNE 6.9 mph - 0.01 in   Unknown
3:56 AM 37.9 °F 32.7 °F 37.0 °F 97% 30.24 in - NNE 6.9 mph - 0.01 in   Unknown
4:56 AM 37.9 °F 33.5 °F 37.0 °F 97% 30.24 in - NNE 5.8 mph - 0.01 in   Unknown
5:56 AM 37.9 °F 32.7 °F 37.0 °F 97% 30.24 in - North 6.9 mph - 0.03 in   Unknown
6:56 AM 37.9 °F 32.1 °F 37.0 °F 97% 30.24 in - NNE 8.1 mph - N/A   Unknown
7:56 AM 39.0 °F 32.3 °F 37.9 °F 96% 30.25 in - NNE 10.4 mph - 0.01 in   Unknown
8:56 AM 39.9 °F 33.9 °F 37.9 °F 93% 30.25 in - NNE 9.2 mph - N/A   Unknown
9:56 AM 41.0 °F 34.7 °F 37.9 °F 89% 30.25 in - NNE 10.4 mph - N/A   Unknown
10:56 AM 41.0 °F 35.2 °F 37.9 °F 89% 30.25 in - NNE 9.2 mph - N/A   Unknown
11:56 AM 42.1 °F 35.7 °F 39.0 °F 89% 30.25 in - NNE 11.5 mph - N/A   Unknown
12:56 PM 43.0 °F 38.2 °F 39.9 °F 89% 30.24 in - NNE 8.1 mph - N/A   Unknown
1:56 PM 44.1 °F 39.0 °F 39.9 °F 85% 30.23 in - North 9.2 mph - N/A   Unknown
2:56 PM 45.0 °F 40.1 °F 39.9 °F 82% 30.22 in - North 9.2 mph - N/A   Unknown
3:56 PM 45.0 °F 41.8 °F 39.9 °F 82% 30.20 in - North 5.8 mph - N/A   Unknown
4:56 PM 46.0 °F 43.1 °F 39.9 °F 79% 30.19 in - North 5.8 mph - N/A   Unknown
5:56 PM 46.0 °F 43.9 °F 39.9 °F 79% 30.18 in - North 4.6 mph - N/A   Unknown
6:56 PM 46.9 °F - 41.0 °F 80% 30.16 in - North 8.1 mph - N/A   Unknown
7:56 PM 46.0 °F - 39.9 °F 79% 30.17 in - Calm Calm - N/A   Unknown
8:56 PM 45.0 °F 43.5 °F 39.9 °F 82% 30.17 in - North 3.5 mph - N/A   Unknown
9:56 PM 46.0 °F - 39.9 °F 79% 30.17 in - Calm Calm - N/A   Unknown
10:56 PM 45.0 °F - 41.0 °F 86% 30.17 in - Calm Calm - N/A   Unknown
11:56 PM 45.0 °F - 39.9 °F 82% 30.17 in - Calm Calm - N/A   Unknown